Chattanooga, TN

8:13 AM EDT on March 26, 2017 (GMT -0400)
Lovell

Weather History for KCHA - October, 2010

Change the Weather History Date:

Thursday, October 28, 2010

  Actual Average Record
Temperature  
Mean Temperature 64 °F 58 °F  
Max Temperature 75 °F 69 °F 84 °F (1940)
Min Temperature 53 °F 46 °F 26 °F (1957)
Degree Days  
Heating Degree Days 1 8  
Month to date heating degree days 73 131  
Since 1 July heating degree days 75 146  
Cooling Degree Days 0 1  
Month to date cooling degree days 43 49  
Year to date cooling degree days 2393 1738  
Growing Degree Days 15 (Base 50)    
Moisture  
Dew Point 45 °F    
Average Humidity 58    
Maximum Humidity 100    
Minimum Humidity 15    
Precipitation  
Precipitation 0.00 in 0.11 in 2.23 in (1935)
Month to date precipitation 2.31 2.94  
Year to date precipitation 32.48 42.24  
Snow  
Snow 0.00 in 0.00 in - ()
Month to date snowfall 0.0 0.0  
Since 1 July snowfall 0.0 0.0  
Since 1 September snowfall 0.0 0.0  
Snow Depth 0.00 in    
Sea Level Pressure  
Sea Level Pressure 30.11 in    
Wind  
Wind Speed 6 mph (NW)    
Max Wind Speed 20 mph    
Max Gust Speed 22 mph    
Visibility 7 miles    
Events Fog    
T = Trace of Precipitation, MM = Missing Value Source: NWS Daily Summary

Daily Weather History Graph

Daily Weather History Graph

Search for Another Location

Airport or City:

Trip Planner

Search our weather history database for the weather conditions in past years. The results will help you decide how hot, cold, wet, or windy it might be!

Date:

Astronomy

Oct. 28, 2010 Rise Set
Actual Time 7:58 AM EDT 6:50 PM EDT
Civil Twilight 7:32 AM EDT 7:16 PM EDT
Nautical Twilight 7:02 AM EDT 7:46 PM EDT
Astronomical Twilight 6:32 AM EDT 8:15 PM EDT
Moon 11:26 PM EDT (10/28) 1:11 PM EDT (10/28)
Length of Visible Light 11h 44m
Length of Day
10h 52m
Waning Gibbous, 70% of the Moon is Illuminated
Oct 28
Waning Gibbous
Oct 30
Last Quarter
Nov 6
New
Nov 13
First Quarter
Nov 21
Full

Hourly Weather History & Observations

Time (EDT) Temp. Dew Point Humidity Pressure Visibility Wind Dir Wind Speed Gust Speed Precip Events Conditions
12:10 AM 60.8 °F 59.0 °F 94% 30.06 in 1.5 mi Calm Calm - N/A   Mostly Cloudy
12:37 AM 60.8 °F 59.0 °F 94% 30.07 in 0.5 mi Calm Calm - N/A Fog Fog
12:53 AM 60.1 °F 60.1 °F 100% 30.06 in 0.2 mi Calm Calm - N/A Fog Fog
1:35 AM 60.8 °F 60.8 °F 100% 30.07 in 0.2 mi Calm Calm - N/A Fog Fog
1:53 AM 61.0 °F 60.1 °F 97% 30.06 in 0.1 mi Calm Calm - N/A Fog Fog
2:53 AM 62.1 °F 61.0 °F 96% 30.06 in 0.1 mi Calm Calm - N/A Fog Fog
3:53 AM 61.0 °F 60.1 °F 97% 30.04 in 0.1 mi Calm Calm - N/A Fog Fog
4:53 AM 61.0 °F 60.1 °F 97% 30.06 in 0.1 mi Calm Calm - N/A Fog Fog
5:24 AM 60.8 °F 60.8 °F 100% 30.07 in 1.5 mi Calm Calm - N/A   Overcast
5:53 AM 61.0 °F 60.1 °F 97% 30.08 in 1.0 mi SW 3.5 mph - N/A Fog Mostly Cloudy
6:24 AM 60.8 °F 60.8 °F 100% 30.09 in 7.0 mi NW 4.6 mph - N/A Fog Patches of Fog
6:53 AM 60.1 °F 57.9 °F 93% 30.09 in 10.0 mi NNW 4.6 mph - N/A   Mostly Cloudy
7:53 AM 57.9 °F 50.0 °F 75% 30.12 in 10.0 mi Calm Calm - N/A   Mostly Cloudy
8:53 AM 55.9 °F 51.1 °F 84% 30.14 in 10.0 mi East 3.5 mph - N/A   Scattered Clouds
9:53 AM 63.0 °F 48.9 °F 60% 30.16 in 10.0 mi Calm Calm - N/A   Scattered Clouds
10:53 AM 66.9 °F 34.0 °F 30% 30.15 in 10.0 mi NNE 3.5 mph - N/A   Scattered Clouds
11:53 AM 69.1 °F 30.0 °F 23% 30.15 in 10.0 mi NW 3.5 mph - N/A   Scattered Clouds
12:53 PM 71.1 °F 28.0 °F 20% 30.14 in 10.0 mi Calm Calm - N/A   Scattered Clouds
1:53 PM 73.0 °F 25.0 °F 17% 30.11 in 10.0 mi NNW 8.1 mph - N/A   Scattered Clouds
2:53 PM 75.0 °F 26.1 °F 16% 30.08 in 10.0 mi WNW 10.4 mph - N/A   Scattered Clouds
3:53 PM 75.0 °F 24.1 °F 15% 30.09 in 10.0 mi WNW 15.0 mph 20.7 mph N/A   Scattered Clouds
4:53 PM 73.9 °F 27.0 °F 18% 30.09 in 10.0 mi NW 9.2 mph - N/A   Scattered Clouds
5:53 PM 71.1 °F 28.0 °F 20% 30.11 in 10.0 mi West 11.5 mph 17.3 mph N/A   Scattered Clouds
6:53 PM 66.9 °F 32.0 °F 27% 30.12 in 10.0 mi WNW 9.2 mph - N/A   Clear
7:53 PM 63.0 °F 35.1 °F 35% 30.15 in 10.0 mi NNW 10.4 mph - N/A   Clear
8:53 PM 62.1 °F 35.1 °F 37% 30.18 in 10.0 mi NNW 10.4 mph - N/A   Clear
9:53 PM 59.0 °F 35.1 °F 41% 30.20 in 10.0 mi NNW 11.5 mph - N/A   Clear
10:53 PM 55.9 °F 35.1 °F 45% 30.23 in 10.0 mi NW 8.1 mph - N/A   Clear
11:53 PM 55.0 °F 36.0 °F 49% 30.25 in 10.0 mi NNW 11.5 mph - N/A   Clear